When you browse on this site, cookies collect data to enhance your experience and personalize the content and advertising you see.
Visit our Privacy Policy to learn more. By continuing to use the site, you agree to this use of cookies and data.
  • In Spain
  • List of Countries
  • For 7 days
  • Water Temperature
  • Satellite Maps
  • Weather Map
  • Weather Widgets
  • user-avatar
    Login

    Hourly Weather Siteki

    Today, 18 February, Monday

    Time Temperature Precipitation Wind Pressure Humidity
    00:00 +19°C° 0 mm 2 mps 718 mmHg 86%
    01:00 +19°C° 0 mm 2 mps 718 mmHg 87%
    02:00 +18°C° 0 mm 2 mps 718 mmHg 84%
    03:00 +18°C° 0 mm 2 mps 718 mmHg 84%
    04:00 +18°C° 0 mm 2 mps 717 mmHg 84%
    05:00 +17°C° 0 mm 2 mps 717 mmHg 84%
    06:00 +19°C° 0 mm 2 mps 718 mmHg 76%
    07:00 +21°C° 0 mm 3 mps 718 mmHg 68%
    08:00 +22°C° 0 mm 4 mps 718 mmHg 61%
    09:00 +25°C° 0 mm 4 mps 718 mmHg 58%
    10:00 +26°C° 0 mm 5 mps 719 mmHg 55%
    11:00 +28°C° 0 mm 5 mps 719 mmHg 52%
    12:00 +28°C° 0 mm 5 mps 718 mmHg 53%
    13:00 +28°C° 0 mm 5 mps 718 mmHg 53%
    14:00 +28°C° 0 mm 4 mps 718 mmHg 53%
    15:00 +28°C° 0.1 mm 4 mps 718 mmHg 58%
    16:00 +27°C° 0.1 mm 4 mps 718 mmHg 63%
    17:00 +26°C° 0.1 mm 3 mps 717 mmHg 68%
    18:00 +24°C° 0 mm 3 mps 718 mmHg 72%
    19:00 +23°C° 0 mm 2 mps 718 mmHg 76%
    20:00 +20°C° 0 mm 2 mps 718 mmHg 80%
    21:00 +19°C° 0 mm 2 mps 718 mmHg 84%
    22:00 +18°C° 0 mm 2 mps 719 mmHg 88%
    23:00 +17°C° 0 mm 2 mps 719 mmHg 92%

    Tomorrow, 19 February, Tuesday

    Time Temperature Precipitation Wind Pressure Humidity
    00:00 +18°C° 0 mm 1 mps 718 mmHg 93%
    01:00 +16°C° 0 mm 1 mps 718 mmHg 94%
    02:00 +16°C° 0 mm 1 mps 718 mmHg 95%
    03:00 +16°C° 0 mm 1 mps 718 mmHg 94%
    04:00 +16°C° 0 mm 1 mps 718 mmHg 94%
    05:00 +15°C° 0 mm 1 mps 718 mmHg 93%
    06:00 +18°C° 0 mm 1 mps 718 mmHg 84%
    07:00 +20°C° 0 mm 1 mps 718 mmHg 75%
    08:00 +21°C° 0 mm 2 mps 719 mmHg 66%
    09:00 +24°C° 0 mm 2 mps 719 mmHg 60%
    10:00 +26°C° 0 mm 2 mps 719 mmHg 53%
    11:00 +28°C° 0 mm 2 mps 719 mmHg 46%
    12:00 +29°C° 0 mm 2 mps 719 mmHg 44%
    13:00 +30°C° 0 mm 2 mps 718 mmHg 42%
    14:00 +30°C° 0 mm 2 mps 718 mmHg 40%
    15:00 +29°C° 0 mm 2 mps 718 mmHg 46%
    16:00 +28°C° 0 mm 2 mps 717 mmHg 53%
    17:00 +27°C° 0 mm 3 mps 717 mmHg 59%
    18:00 +25°C° 0 mm 2 mps 717 mmHg 68%
    19:00 +23°C° 0 mm 2 mps 717 mmHg 77%
    20:00 +21°C° 0 mm 1 mps 718 mmHg 87%
    21:00 +21°C° 0 mm 1 mps 718 mmHg 88%
    22:00 +18°C° 0 mm 0 mps 718 mmHg 89%
    23:00 +18°C° 0 mm 0 mps 719 mmHg 91%

    Day after tomorrow, 20 February, Wednesday

    Time Temperature Precipitation Wind Pressure Humidity
    00:00 +18°C° 0 mm 0 mps 718 mmHg 92%
    01:00 +18°C° 0 mm 0 mps 718 mmHg 92%
    02:00 +18°C° 0 mm 0 mps 717 mmHg 93%
    03:00 +17°C° 0 mm 0 mps 717 mmHg 94%
    04:00 +19°C° 0 mm 1 mps 717 mmHg 95%
    05:00 +19°C° 0 mm 1 mps 717 mmHg 96%
    06:00 +20°C° 0 mm 1 mps 717 mmHg 89%
    07:00 +22°C° 0 mm 1 mps 717 mmHg 82%
    08:00 +23°C° 0 mm 2 mps 718 mmHg 75%
    09:00 +25°C° 0 mm 2 mps 717 mmHg 68%
    10:00 +28°C° 0 mm 2 mps 717 mmHg 61%
    11:00 +30°C° 0 mm 3 mps 717 mmHg 54%
    12:00 +31°C° 0 mm 3 mps 716 mmHg 51%
    13:00 +33°C° 0 mm 3 mps 716 mmHg 48%
    14:00 +34°C° 0 mm 3 mps 715 mmHg 45%
    15:00 +34°C° 0 mm 3 mps 715 mmHg 48%
    16:00 +33°C° 0 mm 3 mps 715 mmHg 50%
    17:00 +33°C° 0 mm 3 mps 714 mmHg 53%
    18:00 +29°C° 0 mm 3 mps 714 mmHg 62%
    19:00 +27°C° 0 mm 2 mps 715 mmHg 71%
    20:00 +24°C° 0 mm 2 mps 715 mmHg 80%
    21:00 +23°C° 0 mm 1 mps 715 mmHg 84%
    22:00 +22°C° 0 mm 1 mps 716 mmHg 88%
    23:00 +22°C° 0 mm 1 mps 716 mmHg 93%

    21 February, Thursday

    Time Temperature Precipitation Wind Pressure Humidity
    00:00 +21°C° 0 mm 1 mps 716 mmHg 94%
    01:00 +21°C° 0 mm 1 mps 716 mmHg 96%
    02:00 +21°C° 0 mm 1 mps 717 mmHg 97%
    03:00 +21°C° 0 mm 1 mps 717 mmHg 97%
    04:00 +21°C° 0 mm 1 mps 718 mmHg 97%
    05:00 +21°C° 0 mm 1 mps 718 mmHg 97%
    06:00 +22°C° 0.1 mm 1 mps 719 mmHg 93%
    07:00 +23°C° 0.1 mm 1 mps 720 mmHg 89%
    08:00 +24°C° 0.1 mm 1 mps 720 mmHg 85%
    09:00 +25°C° 0 mm 1 mps 721 mmHg 80%
    10:00 +26°C° 0 mm 1 mps 721 mmHg 75%
    11:00 +27°C° 0 mm 2 mps 721 mmHg 71%
    12:00 +28°C° 0 mm 2 mps 721 mmHg 67%
    13:00 +29°C° 0 mm 2 mps 720 mmHg 64%
    14:00 +30°C° 0 mm 2 mps 720 mmHg 61%
    15:00 +29°C° 0.1 mm 2 mps 719 mmHg 68%
    16:00 +27°C° 0.1 mm 2 mps 719 mmHg 74%
    17:00 +26°C° 0.1 mm 2 mps 719 mmHg 81%
    18:00 +25°C° 0.1 mm 2 mps 720 mmHg 85%
    19:00 +24°C° 0.1 mm 2 mps 720 mmHg 88%
    20:00 +23°C° 0.1 mm 2 mps 721 mmHg 92%
    21:00 +23°C° 0.4 mm 1 mps 721 mmHg 93%
    22:00 +23°C° 0.4 mm 1 mps 721 mmHg 94%
    23:00 +23°C° 0.4 mm 1 mps 721 mmHg 95%

    22 February, Friday

    Time Temperature Precipitation Wind Pressure Humidity
    00:00 +22°C° 0.1 mm 1 mps 720 mmHg 96%
    01:00 +20°C° 0.1 mm 0 mps 720 mmHg 96%
    02:00 +20°C° 0.1 mm 0 mps 720 mmHg 96%
    03:00 +20°C° 0.4 mm 0 mps 720 mmHg 96%
    04:00 +20°C° 0.4 mm 0 mps 720 mmHg 96%
    05:00 +20°C° 0.4 mm 0 mps 720 mmHg 96%
    06:00 +22°C° 0 mm 1 mps 720 mmHg 93%
    07:00 +23°C° 0 mm 1 mps 720 mmHg 91%
    08:00 +24°C° 0 mm 1 mps 720 mmHg 88%
    09:00 +25°C° 0.1 mm 1 mps 720 mmHg 80%
    10:00 +27°C° 0.1 mm 1 mps 720 mmHg 72%
    11:00 +29°C° 0.1 mm 1 mps 720 mmHg 64%
    12:00 +29°C° 0.1 mm 2 mps 719 mmHg 63%
    13:00 +29°C° 0.1 mm 2 mps 718 mmHg 63%
    14:00 +29°C° 0.1 mm 2 mps 717 mmHg 62%
    15:00 +29°C° 0 mm 3 mps 716 mmHg 63%
    16:00 +29°C° 0 mm 3 mps 716 mmHg 64%
    17:00 +29°C° 0 mm 4 mps 716 mmHg 65%
    18:00 +26°C° 3.9 mm 3 mps 716 mmHg 75%
    19:00 +24°C° 3.9 mm 2 mps 717 mmHg 86%
    20:00 +22°C° 3.9 mm 1 mps 717 mmHg 97%
    21:00 +22°C° 0.9 mm 1 mps 717 mmHg 97%
    22:00 +20°C° 0.9 mm 0 mps 717 mmHg 98%
    23:00 +19°C° 0.9 mm 0 mps 716 mmHg 98%

    23 February, Saturday

    Time Temperature Precipitation Wind Pressure Humidity
    00:00 +21°C° 0 mm 1 mps 716 mmHg 98%
    01:00 +21°C° 0 mm 1 mps 716 mmHg 98%
    02:00 +21°C° 0 mm 1 mps 715 mmHg 98%
    03:00 +21°C° 0 mm 1 mps 715 mmHg 98%
    04:00 +21°C° 0 mm 1 mps 715 mmHg 98%
    05:00 +21°C° 0 mm 1 mps 715 mmHg 98%
    06:00 +22°C° 0 mm 1 mps 716 mmHg 96%
    07:00 +22°C° 0 mm 1 mps 716 mmHg 94%
    08:00 +23°C° 0 mm 1 mps 717 mmHg 91%
    09:00 +25°C° 0.1 mm 1 mps 717 mmHg 83%
    10:00 +27°C° 0.1 mm 1 mps 717 mmHg 75%
    11:00 +29°C° 0.1 mm 1 mps 717 mmHg 66%
    12:00 +29°C° 0.2 mm 1 mps 716 mmHg 65%
    13:00 +29°C° 0.2 mm 2 mps 716 mmHg 64%
    14:00 +29°C° 0.2 mm 2 mps 715 mmHg 63%
    15:00 +29°C° 0.1 mm 2 mps 715 mmHg 65%
    16:00 +29°C° 0.1 mm 3 mps 715 mmHg 66%
    17:00 +28°C° 0.1 mm 3 mps 715 mmHg 68%
    18:00 +27°C° 0 mm 2 mps 715 mmHg 73%
    19:00 +25°C° 0 mm 2 mps 715 mmHg 78%
    20:00 +23°C° 0 mm 2 mps 716 mmHg 84%
    21:00 +23°C° 0.1 mm 2 mps 716 mmHg 86%
    22:00 +22°C° 0.1 mm 1 mps 716 mmHg 88%
    23:00 +22°C° 0.1 mm 1 mps 717 mmHg 91%
    Show more